| time (UTC) | temp F | wind direction | speed MPH | gust MPH | rain 1hr in | rain 24hr in | rain mn in | humidity % | barometer mb |
| 20260508013051 | 69 | 0 | 0.0 | 1.0 | 0.00 | 0.00 | 0.00 | 38 | 1007.9 |
| 20260508011552 | 71 | 121 | 0.0 | 0.0 | 0.00 | 0.00 | 0.00 | 38 | 1007.7 |
| 20260508010048 | 75 | 0 | 0.0 | 0.0 | 0.00 | 0.00 | 0.00 | 38 | 1007.6 |
| 20260508004550 | 75 | 168 | 1.0 | 1.0 | 0.00 | 0.00 | 0.00 | 36 | 1007.6 |
| 20260508003059 | 75 | 192 | 0.0 | 0.0 | 0.00 | 0.00 | 0.00 | 36 | 1007.6 |
| 20260508001550 | 75 | 0 | 0.0 | 0.0 | 0.00 | 0.00 | 0.00 | 36 | 1007.5 |
| 20260508000052 | 76 | 0 | 0.0 | 0.0 | 0.00 | 0.00 | 0.00 | 30 | 1007.7 |
| 20260507234551 | 76 | 0 | 0.0 | 2.0 | 0.00 | 0.00 | 0.00 | 30 | 1007.7 |
| 20260507233053 | 76 | 269 | 0.0 | 4.0 | 0.00 | 0.00 | 0.00 | 30 | 1007.9 |
| 20260507231549 | 77 | 234 | 3.0 | 4.0 | 0.00 | 0.00 | 0.00 | 29 | 1008.0 |
| 20260507230052 | 77 | 279 | 2.0 | 3.0 | 0.00 | 0.00 | 0.00 | 29 | 1008.0 |
| 20260507224610 | 77 | 129 | 4.0 | 7.0 | 0.00 | 0.00 | 0.00 | 29 | 1008.3 |
| 20260507223054 | 76 | 253 | 4.0 | 4.0 | 0.00 | 0.00 | 0.00 | 30 | 1008.5 |
| 20260507221551 | 76 | 105 | 7.0 | 8.0 | 0.00 | 0.00 | 0.00 | 30 | 1008.6 |
| 20260507220050 | 76 | 286 | 2.0 | 11.0 | 0.00 | 0.00 | 0.00 | 30 | 1008.8 |
| 20260507214552 | 75 | 275 | 4.0 | 5.0 | 0.00 | 0.00 | 0.00 | 29 | 1008.7 |
| 20260507213056 | 75 | 248 | 9.0 | 9.0 | 0.00 | 0.00 | 0.00 | 29 | 1009.0 |
| 20260507211608 | 75 | 165 | 7.0 | 10.0 | 0.00 | 0.00 | 0.00 | 29 | 1009.2 |
| 20260507210053 | 75 | 247 | 5.0 | 8.0 | 0.00 | 0.00 | 0.00 | 32 | 1009.4 |
| 20260507204554 | 73 | 244 | 4.0 | 5.0 | 0.00 | 0.00 | 0.00 | 32 | 1009.8 |
| 20260507203051 | 73 | 281 | 6.0 | 11.0 | 0.00 | 0.00 | 0.00 | 32 | 1010.0 |
| 20260507201610 | 73 | 229 | 4.0 | 8.0 | 0.00 | 0.00 | 0.00 | 36 | 1010.4 |
| 20260507194556 | 72 | 144 | 6.0 | 9.0 | 0.00 | 0.00 | 0.00 | 36 | 1010.9 |
| 20260507193056 | 71 | 55 | 7.0 | 7.0 | 0.00 | 0.00 | 0.00 | 37 | 1011.0 |
| 20260507191552 | 71 | 259 | 3.0 | 9.0 | 0.00 | 0.00 | 0.00 | 37 | 1011.3 |
| 20260507190052 | 70 | 250 | 5.0 | 6.0 | 0.00 | 0.00 | 0.00 | 39 | 1011.5 |
| 20260507184548 | 68 | 261 | 6.0 | 9.0 | 0.00 | 0.00 | 0.00 | 39 | 1011.6 |
| 20260507183047 | 68 | 206 | 3.0 | 8.0 | 0.00 | 0.00 | 0.00 | 39 | 1011.8 |
| 20260507181550 | 67 | 254 | 4.0 | 7.0 | 0.00 | 0.00 | 0.00 | 43 | 1012.2 |
| 20260507180054 | 67 | 210 | 4.0 | 11.0 | 0.00 | 0.00 | 0.00 | 43 | 1012.4 |
| 20260507174552 | 66 | 251 | 4.0 | 8.0 | 0.00 | 0.00 | 0.00 | 43 | 1012.7 |
| 20260507173057 | 66 | 281 | 10.0 | 10.0 | 0.00 | 0.00 | 0.00 | 48 | 1013.1 |
| 20260507171554 | 64 | 218 | 6.0 | 12.0 | 0.00 | 0.00 | 0.00 | 48 | 1013.1 |
| 20260507170052 | 63 | 214 | 7.0 | 8.0 | 0.00 | 0.00 | 0.00 | 48 | 1013.3 |
| 20260507164552 | 63 | 267 | 5.0 | 10.0 | 0.00 | 0.00 | 0.00 | 50 | 1013.6 |
| 20260507163052 | 62 | 281 | 3.0 | 7.0 | 0.00 | 0.00 | 0.00 | 50 | 1013.8 |
| 20260507161550 | 61 | 265 | 9.0 | 10.0 | 0.00 | 0.00 | 0.00 | 50 | 1014.0 |
| 20260507160052 | 59 | 124 | 1.0 | 11.0 | 0.00 | 0.00 | 0.00 | 55 | 1014.0 |
| 20260507154554 | 59 | 212 | 8.0 | 8.0 | 0.00 | 0.00 | 0.00 | 55 | 1014.4 |
| 20260507153058 | 59 | 222 | 4.0 | 7.0 | 0.00 | 0.00 | 0.00 | 55 | 1014.5 |
| 20260507151551 | 58 | 242 | 12.0 | 12.0 | 0.00 | 0.00 | 0.00 | 64 | 1014.9 |
| 20260507150056 | 56 | 247 | 3.0 | 9.0 | 0.00 | 0.00 | 0.00 | 64 | 1014.9 |
| 20260507144550 | 56 | 248 | 3.0 | 5.0 | 0.00 | 0.00 | 0.00 | 64 | 1015.2 |
| 20260507143053 | 54 | 250 | 3.0 | 5.0 | 0.00 | 0.00 | 0.00 | 70 | 1015.3 |
| 20260507141556 | 52 | 259 | 5.0 | 7.0 | 0.00 | 0.00 | 0.00 | 70 | 1015.4 |
| 20260507140106 | 52 | 223 | 5.0 | 7.0 | 0.00 | 0.00 | 0.00 | 70 | 1015.6 |
| 20260507134558 | 51 | 277 | 8.0 | 8.0 | 0.00 | 0.00 | 0.00 | 77 | 1015.7 |
| 20260507133101 | 50 | 245 | 3.0 | 5.0 | 0.00 | 0.00 | 0.00 | 77 | 1015.7 |
| 20260507131551 | 48 | 232 | 2.0 | 5.0 | 0.00 | 0.00 | 0.00 | 77 | 1015.8 |
| 20260507130047 | 48 | 282 | 2.0 | 5.0 | 0.00 | 0.00 | 0.00 | 82 | 1015.8 |
| 20260507124550 | 47 | 263 | 3.0 | 4.0 | 0.00 | 0.00 | 0.00 | 82 | 1015.8 |
| 20260507123052 | 40 | 272 | 2.0 | 2.0 | 0.00 | 0.00 | 0.00 | 82 | 1015.7 |
| 20260507121549 | 40 | 257 | 0.0 | 1.0 | 0.00 | 0.00 | 0.00 | 90 | 1015.6 |
| 20260507120052 | 40 | 0 | 0.0 | 0.0 | 0.00 | 0.00 | 0.00 | 90 | 1015.8 |
| 20260507114547 | 40 | 0 | 0.0 | 0.0 | 0.00 | 0.00 | 0.00 | 89 | 1015.7 |
| 20260507113052 | 40 | 0 | 0.0 | 0.0 | 0.00 | 0.00 | 0.00 | 89 | 1015.8 |
| 20260507111550 | 40 | 0 | 0.0 | 0.0 | 0.00 | 0.00 | 0.00 | 89 | 1015.9 |
| 20260507110053 | 41 | 0 | 0.0 | 0.0 | 0.00 | 0.00 | 0.00 | 88 | 1015.8 |
| 20260507104547 | 41 | 0 | 0.0 | 0.0 | 0.00 | 0.00 | 0.00 | 88 | 1015.9 |
| 20260507103048 | 41 | 0 | 0.0 | 0.0 | 0.00 | 0.00 | 0.00 | 88 | 1016.0 |
| 20260507101603 | 41 | 0 | 0.0 | 0.0 | 0.00 | 0.00 | 0.00 | 86 | 1016.0 |
| 20260507100051 | 42 | 0 | 0.0 | 0.0 | 0.00 | 0.00 | 0.00 | 86 | 1015.9 |
| 20260507094557 | 42 | 0 | 0.0 | 0.0 | 0.00 | 0.00 | 0.00 | 86 | 1016.0 |
| 20260507093047 | 42 | 0 | 0.0 | 0.0 | 0.00 | 0.00 | 0.00 | 87 | 1016.1 |
| 20260507091603 | 43 | 0 | 0.0 | 0.0 | 0.00 | 0.00 | 0.00 | 87 | 1016.1 |
| 20260507090110 | 43 | 0 | 0.0 | 0.0 | 0.00 | 0.00 | 0.00 | 87 | 1016.1 |
| 20260507084552 | 42 | 0 | 0.0 | 0.0 | 0.00 | 0.00 | 0.00 | 86 | 1016.3 |
| 20260507083059 | 42 | 0 | 0.0 | 0.0 | 0.00 | 0.00 | 0.00 | 86 | 1016.4 |
| 20260507081557 | 41 | 0 | 0.0 | 0.0 | 0.00 | 0.00 | 0.00 | 86 | 1016.5 |
| 20260507080055 | 42 | 0 | 0.0 | 0.0 | 0.00 | 0.00 | 0.00 | 84 | 1016.7 |
| 20260507074552 | 42 | 0 | 0.0 | 0.0 | 0.00 | 0.00 | 0.00 | 84 | 1016.7 |
| 20260507073103 | 43 | 0 | 0.0 | 0.0 | 0.00 | 0.00 | 0.00 | 84 | 1016.8 |
| 20260507071549 | 43 | 0 | 0.0 | 0.0 | 0.00 | 0.00 | 0.00 | 79 | 1017.0 |
| 20260507070134 | 45 | 0 | 0.0 | 0.0 | 0.00 | 0.00 | 0.00 | 79 | 1017.1 |
| 20260507064553 | 45 | 0 | 0.0 | 0.0 | 0.00 | 0.00 | 0.00 | 79 | 1017.2 |
| 20260507063050 | 46 | 0 | 0.0 | 0.0 | 0.00 | 0.00 | 0.00 | 72 | 1017.4 |
| 20260507061549 | 47 | 0 | 0.0 | 0.0 | 0.00 | 0.00 | 0.00 | 72 | 1017.4 |
| 20260507060054 | 50 | 0 | 0.0 | 0.0 | 0.00 | 0.00 | 0.00 | 72 | 1017.5 |
| 20260507054553 | 50 | 0 | 0.0 | 0.0 | 0.00 | 0.00 | 0.00 | 65 | 1017.6 |
| 20260507053053 | 51 | 0 | 0.0 | 2.0 | 0.00 | 0.00 | 0.00 | 65 | 1017.7 |
| 20260507051553 | 52 | 267 | 1.0 | 2.0 | 0.00 | 0.00 | 0.00 | 65 | 1017.7 |
| 20260507050053 | 52 | 0 | 0.0 | 1.0 | 0.00 | 0.00 | 0.00 | 61 | 1017.8 |
| 20260507044551 | 52 | 278 | 2.0 | 2.0 | 0.00 | 0.01 | 0.00 | 61 | 1017.7 |
| 20260507043052 | 53 | 286 | 1.0 | 2.0 | 0.00 | 0.01 | 0.00 | 58 | 1017.7 |
| 20260507041546 | 53 | 259 | 0.0 | 1.0 | 0.00 | 0.01 | 0.00 | 58 | 1017.8 |
| 20260507040050 | 53 | 265 | 2.0 | 3.0 | 0.00 | 0.01 | 0.00 | 58 | 1017.9 |
| 20260507034553 | 53 | 283 | 0.0 | 1.0 | 0.00 | 0.01 | 0.00 | 57 | 1017.8 |
| 20260507033053 | 53 | 261 | 1.0 | 1.0 | 0.00 | 0.01 | 0.00 | 57 | 1017.9 |
| 20260507031554 | 53 | 262 | 0.0 | 1.0 | 0.00 | 0.01 | 0.00 | 57 | 1017.7 |
| 20260507030058 | 54 | 281 | 0.0 | 1.0 | 0.00 | 0.01 | 0.00 | 53 | 1017.8 |
| 20260507024550 | 54 | 0 | 0.0 | 1.0 | 0.00 | 0.01 | 0.00 | 53 | 1017.8 |
| 20260507023048 | 54 | 242 | 0.0 | 1.0 | 0.00 | 0.01 | 0.00 | 53 | 1017.7 |
| 20260507021613 | 54 | 0 | 0.0 | 0.0 | 0.00 | 0.01 | 0.00 | 45 | 1017.4 |
| 20260507014610 | 56 | 263 | 0.0 | 1.0 | 0.00 | 0.01 | 0.00 | 45 | 1017.2 |